sat.trackr.live / text

‹ back to catalog

YAOGAN-8

NORAD 36121 · 2009-072A

PAYLOAD ACTIVE UNKNOWN

§ Identity

Operator
Country
PRC
Launch date
2009-12-15
Launch site
TAISC
Launch vehicle
Mass (kg)
RCS (m²)
3.03

External: N2YO · Heavens-Above · Gunter

§ Orbital elements

Epoch: 2026-09-19T22:35:15.938016Z

Period
110.34 min
Inclination
100.1995°
Eccentricity
0.0021557
Mean motion
13.05086285 rev/d
Perigee alt
1,225.8 km
Apogee alt
1,258.7 km
Semi-major
7,620.4 km
B*
-6.7508e-4
RAAN
142.3739°
Arg perigee
109.5754°
Mean anomaly
250.7683°
Rev number
80,103

§ Raw data

YAOGAN-81 36121U 09072A   26262.94115669 -.00000260  00000+0 -67508-3 0  99982 36121 100.1995 142.3739 0021557 109.5754 250.7683 13.05086285801031

JSON: /api/v1/satellites/36121 · /tle

For live sub-satellite position, see the globe view (requires WebGL).

§ Visibility from observer

Set your observer location to see the next 7 days of passes ≥ 10°. The values pass through the URL so the page stays shareable.

No JS? Fill the form by hand. The geolocation button needs JavaScript.